Date String (YYYY-MM-DD hh:mm:ss) UTC,Instrument flags,absolute air pressure of the measurement (hPa),sample flow rate (lpm),inlet stack bypass flow (lpm),air temperature of the measurement (°C),ambient temperature measured by the external sensor (°C),aerosol sample conditioner tube jacket temperature (°C),OPC LED temperature (°C),internal box temperature (°C),relative humidity of the measurement (%),span deviation,mass concentration of particles derived from Lorenz-Mie calculation of OPC scattering (μg/m³),mass concentration of particles derived from Lorenz-Mie calculation of OPC scattering (μg/m³),mass concentration of particles derived from Lorenz-Mie calculation of OPC scattering (μg/m³)
DateTimeUTC,F1_M11,P_M11,Q1_M11,Q2_M11,T1_M11,T2_M11,T3_M11,T4_M11,T5_M11,U1_M11,ZSPAN_M11,X0_M11,X2_M11,X1_M11
2024-05-26 19:00:00,SystemResetWarning,0826.2,5.01,000.00,027.7,026.9,000.0,035.9,029.4,012.1,0000.0,0004.88,0002.56,0002.08
2024-05-26 19:01:00,SystemResetWarning,0826.2,5.00,000.00,027.7,026.9,000.0,035.9,029.4,012.4,0000.0,0004.61,0002.61,0002.09
2024-05-26 19:02:00,SystemResetWarning,0826.2,5.00,000.00,027.7,026.9,000.0,036.0,029.5,012.1,0000.0,0004.74,0002.64,0002.11
2024-05-26 19:03:00,SystemResetWarning,0826.2,5.00,000.00,027.7,027.0,000.0,036.0,029.5,012.3,0000.0,0004.74,0002.65,0002.11
2024-05-26 19:04:00,SystemResetWarning,0826.2,4.99,000.00,027.7,026.9,000.0,036.0,029.5,012.4,0000.0,0005.18,0002.67,0002.11
2024-05-26 19:05:00,SystemResetWarning,0826.3,4.99,000.00,027.7,026.9,000.0,036.0,029.5,012.2,0000.0,0005.27,0002.69,0002.11
2024-05-26 19:06:00,SystemResetWarning,0826.4,5.01,000.00,027.8,027.0,000.0,036.0,029.5,012.3,0000.0,0005.20,0002.72,0002.13
2024-05-26 19:07:00,SystemResetWarning,0826.4,5.01,000.00,027.8,027.0,000.0,036.0,029.5,012.4,0000.0,0005.29,0002.75,0002.15
2024-05-26 19:08:00,SystemResetWarning,0826.3,5.01,000.00,027.8,027.0,000.0,036.0,029.5,012.5,0000.0,0006.95,0002.79,0002.16
2024-05-26 19:09:00,SystemResetWarning,0826.4,5.00,000.00,027.8,027.0,000.0,036.0,029.5,012.4,0000.0,0006.96,0002.79,0002.15
2024-05-26 19:10:00,SystemResetWarning,0826.4,5.00,000.00,027.8,027.0,000.0,036.0,029.6,012.4,0000.0,0006.99,0002.81,0002.16
2024-05-26 19:11:00,SystemResetWarning,0826.4,5.00,000.00,027.8,027.1,000.0,036.0,029.6,012.6,0000.0,0006.44,0002.77,0002.16
2024-05-26 19:12:00,SystemResetWarning,0826.4,5.00,000.00,027.8,027.1,000.0,036.0,029.6,012.6,0000.0,0006.28,0002.78,0002.16
2024-05-26 19:13:00,SystemResetWarning,0826.5,4.99,000.00,027.8,027.1,000.0,036.0,029.6,012.4,0000.0,0006.36,0002.84,0002.16
2024-05-26 19:14:00,SystemResetWarning,0826.6,4.99,000.00,027.9,027.1,000.0,036.0,029.6,013.0,0000.0,0006.52,0002.82,0002.15
2024-05-26 19:15:00,SystemResetWarning,0826.5,5.00,000.00,027.9,027.1,000.0,036.0,029.6,012.7,0000.0,0006.09,0002.81,0002.15
2024-05-26 19:16:00,SystemResetWarning,0826.4,5.00,000.00,027.9,027.1,000.0,036.1,029.6,012.5,0000.0,0006.11,0002.78,0002.13
2024-05-26 19:17:00,SystemResetWarning,0826.4,5.01,000.00,027.9,027.1,000.0,036.1,029.6,012.4,0000.0,0006.23,0002.76,0002.11
2024-05-26 19:18:00,SystemResetWarning,0826.4,5.01,000.00,027.9,027.1,000.0,036.1,029.6,012.3,0000.0,0006.14,0002.74,0002.09
2024-05-26 19:19:00,SystemResetWarning,0826.4,5.00,000.00,027.9,027.2,000.0,036.1,029.6,012.5,0000.0,0005.45,0002.74,0002.07
2024-05-26 19:20:00,SystemResetWarning,0826.4,5.00,000.00,027.9,027.2,000.0,036.1,029.7,012.7,0000.0,0006.36,0002.77,0002.07
2024-05-26 19:21:00,SystemResetWarning,0826.4,5.00,000.00,027.9,027.2,000.0,036.1,029.6,012.3,0000.0,0006.69,0002.80,0002.07
2024-05-26 19:22:00,SystemResetWarning,0826.5,5.00,000.00,027.9,027.2,000.0,036.1,029.6,012.1,0000.0,0007.44,0002.84,0002.07
2024-05-26 19:23:00,SystemResetWarning,0826.5,5.00,000.00,027.9,027.2,000.0,036.1,029.7,012.3,0000.0,0007.36,0002.78,0002.07
2024-05-26 19:24:00,SystemResetWarning,0826.4,5.00,000.00,027.9,027.2,000.0,036.1,029.7,012.2,0000.0,0007.26,0002.69,0002.05
2024-05-26 19:25:00,SystemResetWarning,0826.6,5.00,000.00,027.9,027.2,000.0,036.1,029.7,011.9,0000.0,0007.30,0002.69,0002.04
2024-05-26 19:26:00,SystemResetWarning,0826.6,5.00,000.00,027.9,027.2,000.0,036.2,029.7,012.0,0000.0,0007.76,0002.67,0002.04
2024-05-26 19:27:00,SystemResetWarning,0826.6,5.00,000.00,027.9,027.2,000.0,036.2,029.7,012.3,0000.0,0007.69,0002.70,0002.05
2024-05-26 19:28:00,SystemResetWarning,0826.6,5.00,000.00,028.0,027.2,000.0,036.2,029.7,012.6,0000.0,0007.59,0002.69,0002.04
2024-05-26 19:29:00,SystemResetWarning,0826.6,5.00,000.00,028.0,027.2,000.0,036.2,029.8,012.4,0000.0,0007.60,0002.67,0002.04
2024-05-26 19:30:00,SystemResetWarning,0826.6,5.00,000.00,028.0,027.2,000.0,036.2,029.8,012.0,0000.0,0007.17,0002.64,0002.04
2024-05-26 19:31:00,SystemResetWarning,0826.5,5.00,000.00,028.0,027.2,000.0,036.2,029.7,012.5,0000.0,0006.36,0002.67,0002.05
2024-05-26 19:32:00,SystemResetWarning,0826.6,5.00,000.00,028.0,027.2,000.0,036.2,029.7,012.6,0000.0,0006.43,0002.70,0002.03
2024-05-26 19:33:00,SystemResetWarning,0826.6,5.00,000.00,028.0,027.2,000.0,036.2,029.8,012.0,0000.0,0005.50,0002.69,0002.03
2024-05-26 19:34:00,SystemResetWarning,0826.6,5.00,000.00,028.0,027.3,000.0,036.2,029.8,012.2,0000.0,0005.48,0002.69,0002.02
2024-05-26 19:35:00,SystemResetWarning,0826.6,5.00,000.00,028.0,027.3,000.0,036.2,029.8,012.1,0000.0,0005.64,0002.75,0002.03
2024-05-26 19:36:00,SystemResetWarning,0826.6,5.00,000.00,028.0,027.3,000.0,036.2,029.8,011.7,0000.0,0005.71,0002.79,0002.04
2024-05-26 19:37:00,SystemResetWarning,0826.6,5.01,000.00,028.1,027.3,000.0,036.2,029.8,012.0,0000.0,0004.69,0002.78,0002.05
2024-05-26 19:38:00,SystemResetWarning,0826.5,5.00,000.00,028.1,027.3,000.0,036.3,029.8,011.8,0000.0,0004.67,0002.73,0002.03
2024-05-26 19:39:00,SystemResetWarning,0826.5,5.00,000.00,028.1,027.3,000.0,036.3,029.8,011.7,0000.0,0004.92,0002.73,0002.03
2024-05-26 19:40:00,SystemResetWarning,0826.6,5.00,000.00,028.1,027.3,000.0,036.3,029.8,011.9,0000.0,0004.91,0002.70,0002.01
2024-05-26 19:41:00,SystemResetWarning,0826.6,5.01,000.00,028.1,027.4,000.0,036.3,029.9,011.8,0000.0,0005.05,0002.70,0002.00
2024-05-26 19:42:00,SystemResetWarning,0826.5,4.99,000.00,028.1,027.4,000.0,036.3,029.8,012.1,0000.0,0004.80,0002.64,0001.99
2024-05-26 19:43:00,SystemResetWarning,0826.5,5.00,000.00,028.1,027.4,000.0,036.3,029.9,011.9,0000.0,0004.49,0002.55,0001.99
2024-05-26 19:44:00,SystemResetWarning,0826.6,5.00,000.00,028.1,027.4,000.0,036.3,029.9,012.1,0000.0,0005.31,0002.53,0001.99
2024-05-26 19:45:00,SystemResetWarning,0826.7,5.00,000.00,028.1,027.4,000.0,036.3,029.9,012.1,0000.0,0005.38,0002.54,0002.00
2024-05-26 19:46:00,SystemResetWarning,0826.8,5.00,000.00,028.1,027.4,000.0,036.3,029.9,011.4,0000.0,0005.31,0002.48,0001.98
2024-05-26 19:47:00,SystemResetWarning,0826.8,5.00,000.00,028.1,027.4,000.0,036.3,029.9,011.3,0000.0,0005.15,0002.40,0001.97
2024-05-26 19:48:00,SystemResetWarning,0826.8,5.00,000.00,028.2,027.4,000.0,036.4,029.9,011.8,0000.0,0005.46,0002.41,0001.97
2024-05-26 19:49:00,SystemResetWarning,0826.8,5.00,000.00,028.2,027.4,000.0,036.4,029.9,011.8,0000.0,0005.83,0002.42,0001.98
2024-05-26 19:50:00,SystemResetWarning,0826.8,5.00,000.00,028.2,027.5,000.0,036.4,029.9,012.0,0000.0,0005.54,0002.42,0001.98
2024-05-26 19:51:00,SystemResetWarning,0826.8,5.00,000.00,028.2,027.5,000.0,036.4,030.0,011.8,0000.0,0005.50,0002.42,0001.99
2024-05-26 19:52:00,SystemResetWarning,0826.8,4.99,000.00,028.2,027.5,000.0,036.4,030.0,011.8,0000.0,0005.26,0002.41,0002.00
2024-05-26 19:53:00,SystemResetWarning,0826.8,5.01,000.00,028.2,027.5,000.0,036.4,030.0,011.8,0000.0,0005.58,0002.41,0002.00
2024-05-26 19:54:00,SystemResetWarning,0826.8,5.02,000.00,028.2,027.5,000.0,036.4,030.0,012.0,0000.0,0006.37,0002.49,0002.00
2024-05-26 19:55:00,SystemResetWarning,0826.8,4.99,000.00,028.3,027.5,000.0,036.4,030.0,012.0,0000.0,0006.44,0002.50,0001.99
2024-05-26 19:56:00,SystemResetWarning,0826.8,4.99,000.00,028.3,027.5,000.0,036.4,030.0,011.7,0000.0,0006.12,0002.47,0001.97
2024-05-26 19:57:00,SystemResetWarning,0826.8,4.99,000.00,028.3,027.5,000.0,036.4,030.0,011.7,0000.0,0006.38,0002.47,0001.97
2024-05-26 19:58:00,SystemResetWarning,0826.8,5.01,000.00,028.3,027.6,000.0,036.4,030.1,012.0,0000.0,0007.61,0002.47,0001.96
2024-05-26 19:59:00,SystemResetWarning,0826.8,5.01,000.00,028.3,027.6,000.0,036.4,030.1,012.2,0000.0,0007.64,0002.44,0001.94
